Location: Unspecified
(0.0000°N, 0.0000°E)
Time: 03:39:19
(UTC+02:00)

H-2A R/B - Visible Passes

Search period start: 04 July 2015 00:00
Search period end: 14 July 2015 00:00
Orbit: 262 x 33365 km, 28.4° (Epoch: 02 July)

Date Brightness Start Highest point End Pass type
(mag) Time Alt. Az. Time Alt. Az. Time Alt. Az.
05 Jul 4.8 01:57:18 10° WSW 09:35:12 16° NW 09:38:31 10° NNW visible
05 Jul 6.8 19:51:13 10° WNW 20:37:43 71° SSW 05:01:32 10° E visible
06 Jul 5.6 15:12:05 10° N 15:18:39 26° NE 23:49:26 10° ESE visible
07 Jul 5.9 20:44:21 10° W 05:39:32 77° SSE 05:52:49 10° ENE visible
08 Jul 6.0 16:01:14 10° NNW 16:09:56 46° NE 00:55:32 10° ESE visible
09 Jul 5.1 21:39:18 10° W 06:34:04 84° NNW 06:43:07 10° NE visible
10 Jul 6.5 16:50:46 10° NW 17:02:02 69° NE 01:53:58 10° E visible
11 Jul 4.7 22:37:56 10° W 07:25:43 58° NW 07:32:32 10° NE visible
12 Jul 7.0 17:40:32 10° WNW 17:56:19 88° NNE 02:48:30 10° E visible
